Snow/Ice From: 17-12-2017 10:00 Until: 18-12-2017 06:00 warning for: Snow/Ice Level: Yellow info button

Although rather usual in this region, locally or potentially dangerous phenomena are expected. (such as local winds, summer thunderstorms, rising streams or high waves) Be aware and pay attention to the latest weather updates, especially if you carry out activities exposed to weather or close to a stream or shoreline. 


Meteo18 Weather Cam more information Meteo18 Weather Cam


Thunder radar more information blitzortung!


warning for Snow/Ice more information rain snow radar


Visit our other weather sites:

Template documentation
and downloads

And another site



Weather Underground History page Text

Daily Summary for August 21, 2017 Units:  English    Metric   Both
« Previous Day
Next Day »
Daily Weekly Monthly Yearly Custom
  High: Low: Average:
Temperature: 81 °F 54.3 °F 66.7 °F
Dew Point: 60.3 °F 50.2 °F 55 °F
Humidity: 90 % 47 % 68 %
Wind Speed: 6 mph 0 mph 1.3 mph
Wind Gust: 10 mph - -
Wind:- - ESE
Pressure: 30.3 in 30.2 in -
Precipitation: 0 in    
Historical Graphs
 
 
Tabular Data for August 21, 2017
Time Temperature Dew Point Pressure Wind Wind Speed Wind Gust Humidity Rainfall Rate (Hourly)
00:02 57.2 °F 51.8 °F 30.3 in Calm   1 mph 82 % 0 in
00:12 57.2 °F 51.4 °F 30.3 in Calm   1 mph 81 % 0 in
00:17 56.8 °F 51.4 °F 30.3 in Calm   1 mph 82 % 0 in
00:22 57 °F 51.3 °F 30.3 in Calm   1 mph 81 % 0 in
00:32 57.6 °F 51.4 °F 30.3 in Calm   1 mph 80 % 0 in
00:37 57.4 °F 51.3 °F 30.3 in Calm   1 mph 80 % 0 in
00:42 57.4 °F 51.3 °F 30.3 in Calm   1 mph 80 % 0 in
00:52 56.5 °F 51.4 °F 30.3 in Calm   1 mph 83 % 0 in
00:57 56.1 °F 51.4 °F 30.3 in Calm   1 mph 84 % 0 in
01:02 55.8 °F 51.1 °F 30.3 in WNW 1 mph 1 mph 84 % 0 in
01:09 55.6 °F 50.9 °F 30.3 in Calm   2 mph 84 % 0 in
01:17 55.6 °F 51.1 °F 30.3 in WNW 1 mph 2 mph 85 % 0 in
01:22 55.8 °F 51.1 °F 30.3 in Calm   1 mph 84 % 0 in
01:29 56.1 °F 51.1 °F 30.3 in Calm   1 mph 83 % 0 in
01:37 55.9 °F 50.9 °F 30.3 in Calm   1 mph 83 % 0 in
01:42 55.8 °F 50.7 °F 30.3 in Calm   1 mph 83 % 0 in
01:47 55.8 °F 51.1 °F 30.3 in Calm   1 mph 84 % 0 in
01:52 55.6 °F 50.9 °F 30.3 in Calm   1 mph 84 % 0 in
01:57 55.2 °F 50.7 °F 30.3 in Calm   1 mph 85 % 0 in
02:02 55.2 °F 50.7 °F 30.3 in Calm   1 mph 85 % 0 in
02:12 56.1 °F 50.7 °F 30.3 in Calm   2 mph 82 % 0 in
02:17 56.1 °F 50.7 °F 30.3 in Calm   2 mph 82 % 0 in
02:22 55.9 °F 50.5 °F 30.3 in Calm   2 mph 82 % 0 in
02:32 55.9 °F 50.5 °F 30.3 in Calm   1 mph 82 % 0 in
02:42 55.6 °F 50.5 °F 30.3 in Calm     83 % 0 in
02:47 55.2 °F 50.5 °F 30.3 in Calm     84 % 0 in
02:52 55 °F 50.5 °F 30.3 in Calm     85 % 0 in
03:02 55 °F 50.5 °F 30.3 in Calm     85 % 0 in
03:12 54.9 °F 50.4 °F 30.3 in Calm     85 % 0 in
03:17 54.5 °F 50.4 °F 30.3 in Calm     86 % 0 in
03:22 54.5 °F 50.4 °F 30.3 in Calm     86 % 0 in
03:32 54.3 °F 50.2 °F 30.3 in Calm     86 % 0 in
03:42 54.3 °F 50.2 °F 30.3 in Calm     86 % 0 in
03:47 54.3 °F 50.2 °F 30.3 in Calm     86 % 0 in
03:52 54.3 °F 50.2 °F 30.3 in Calm     86 % 0 in
03:57 54.3 °F 50.5 °F 30.3 in Calm     87 % 0 in
04:02 54.5 °F 50.7 °F 30.3 in Calm     87 % 0 in
04:07 54.7 °F 50.5 °F 30.3 in Calm     86 % 0 in
04:12 54.9 °F 51.1 °F 30.3 in Calm     87 % 0 in
04:17 54.9 °F 51.1 °F 30.3 in Calm     87 % 0 in
04:22 55 °F 51.3 °F 30.3 in Calm     87 % 0 in
04:32 55.2 °F 51.8 °F 30.3 in Calm     88 % 0 in
04:42 55.4 °F 52 °F 30.3 in Calm     88 % 0 in
04:47 55.6 °F 51.8 °F 30.3 in Calm     87 % 0 in
04:52 55.8 °F 52 °F 30.3 in Calm     87 % 0 in
05:02 55.9 °F 52.2 °F 30.3 in Calm     87 % 0 in
05:12 56.1 °F 52.3 °F 30.3 in Calm     87 % 0 in
05:22 56.1 °F 52.3 °F 30.3 in Calm     87 % 0 in
05:32 56.1 °F 52.3 °F 30.3 in Calm     87 % 0 in
05:42 55.9 °F 52.5 °F 30.3 in Calm     88 % 0 in
05:52 55.9 °F 52.5 °F 30.3 in Calm     88 % 0 in
05:57 55.9 °F 52.5 °F 30.3 in Calm     88 % 0 in
06:02 55.9 °F 52.5 °F 30.3 in Calm     88 % 0 in
06:12 56.1 °F 52.7 °F 30.3 in Calm     88 % 0 in
06:17 56.3 °F 52.9 °F 30.3 in Calm     88 % 0 in
06:22 56.3 °F 52.9 °F 30.3 in Calm     88 % 0 in
06:32 56.5 °F 52.9 °F 30.3 in Calm     88 % 0 in
06:37 56.5 °F 53.2 °F 30.3 in Calm     89 % 0 in
06:42 56.7 °F 53.4 °F 30.3 in Calm     89 % 0 in
06:52 56.7 °F 53.8 °F 30.3 in Calm     90 % 0 in
06:57 56.8 °F 54 °F 30.3 in Calm     90 % 0 in
07:02 56.8 °F 53.6 °F 30.3 in Calm     89 % 0 in
07:12 56.8 °F 53.2 °F 30.3 in Calm     88 % 0 in
07:17 57 °F 53.8 °F 30.3 in Calm     89 % 0 in
07:22 56.8 °F 53.1 °F 30.3 in Calm     87 % 0 in
07:32 57.4 °F 53.2 °F 30.3 in Calm     86 % 0 in
07:37 57.4 °F 52.9 °F 30.3 in Calm     85 % 0 in
07:42 57.6 °F 52.5 °F 30.3 in Calm     83 % 0 in
07:52 57.9 °F 52.7 °F 30.3 in Calm     83 % 0 in
07:57 58.3 °F 53.1 °F 30.3 in Calm     83 % 0 in
08:02 58.5 °F 52.7 °F 30.3 in Calm     81 % 0 in
08:12 59.4 °F 53.2 °F 30.3 in Calm     80 % 0 in
08:17 59.4 °F 52.9 °F 30.3 in Calm     79 % 0 in
08:22 59.4 °F 52.9 °F 30.3 in Calm     79 % 0 in
08:32 59 °F 53.2 °F 30.3 in Calm     81 % 0 in
08:42 59.4 °F 53.2 °F 30.3 in Calm     80 % 0 in
08:47 59.5 °F 53.8 °F 30.3 in Calm     81 % 0 in
08:57 60.6 °F 54.1 °F 30.3 in Calm   1 mph 79 % 0 in
09:07 61.5 °F 53.6 °F 30.3 in SSW 2 mph 4 mph 75 % 0 in
09:12 62.1 °F 54 °F 30.3 in SSW 1 mph 4 mph 75 % 0 in
09:17 62.4 °F 53.6 °F 30.3 in Calm   4 mph 73 % 0 in
09:22 63.1 °F 54 °F 30.3 in SSW 1 mph 4 mph 72 % 0 in
09:27 63.7 °F 54.5 °F 30.3 in SSE 2 mph 2 mph 72 % 0 in
09:32 63.9 °F 54.3 °F 30.3 in SSW 1 mph 2 mph 71 % 0 in
09:42 64.9 °F 54.1 °F 30.3 in WSW 2 mph 4 mph 68 % 0 in
09:52 65.1 °F 53.4 °F 30.3 in SW 2 mph 4 mph 66 % 0 in
09:57 65.5 °F 53.8 °F 30.3 in SSE 1 mph 5 mph 66 % 0 in
10:02 66 °F 54 °F 30.3 in SW 5 mph 5 mph 65 % 0 in
10:12 66.7 °F 55 °F 30.3 in SW 5 mph 6 mph 66 % 0 in
10:22 66.9 °F 54 °F 30.3 in SW 2 mph 6 mph 63 % 0 in
10:32 67.6 °F 54.7 °F 30.3 in SSW 4 mph 6 mph 63 % 0 in
10:42 67.8 °F 52.9 °F 30.3 in South 3 mph 5 mph 59 % 0 in
10:47 68.2 °F 53.8 °F 30.3 in WSW 2 mph 6 mph 60 % 0 in
10:52 68.4 °F 53.1 °F 30.3 in SSW 4 mph 6 mph 58 % 0 in
10:57 68.4 °F 53.1 °F 30.3 in SW 5 mph 7 mph 58 % 0 in
11:02 68.5 °F 54.1 °F 30.3 in SSW 1 mph 7 mph 60 % 0 in
11:12 70 °F 54.5 °F 30.3 in SW 4 mph 7 mph 58 % 0 in
11:17 70 °F 53.6 °F 30.3 in Calm   5 mph 56 % 0 in
11:22 70.3 °F 52.9 °F 30.3 in South 2 mph 5 mph 54 % 0 in
11:32 70.9 °F 53.4 °F 30.3 in Calm   5 mph 54 % 0 in
11:42 71.6 °F 53.6 °F 30.3 in SSW 1 mph 6 mph 53 % 0 in
11:52 72.3 °F 54.1 °F 30.3 in Calm   5 mph 53 % 0 in
12:02 73 °F 53.2 °F 30.3 in Calm   4 mph 50 % 0 in
12:12 72.7 °F 53.4 °F 30.3 in ENE 4 mph 4 mph 51 % 0 in
12:17 72.3 °F 53.2 °F 30.3 in ENE 1 mph 4 mph 51 % 0 in
12:22 72.7 °F 54 °F 30.3 in Calm   4 mph 52 % 0 in
12:32 72.3 °F 53.8 °F 30.3 in SSW 1 mph 7 mph 52 % 0 in
12:42 74.5 °F 54.7 °F 30.3 in ENE 3 mph 5 mph 50 % 0 in
12:47 74.5 °F 54.1 °F 30.3 in East 5 mph 5 mph 49 % 0 in
12:52 72.9 °F 53.6 °F 30.3 in SW 4 mph 5 mph 51 % 0 in
13:02 73.9 °F 54.7 °F 30.3 in NNE 3 mph 6 mph 51 % 0 in
13:07 74.3 °F 55.6 °F 30.3 in NNW 4 mph 9 mph 52 % 0 in
13:12 74.5 °F 55.2 °F 30.3 in ENE 4 mph 9 mph 51 % 0 in
13:17 73.9 °F 54.7 °F 30.2 in East 3 mph 10 mph 51 % 0 in
13:22 73.9 °F 55.2 °F 30.2 in North 3 mph 10 mph 52 % 0 in
13:32 74.5 °F 54.7 °F 30.2 in NW 1 mph 9 mph 50 % 0 in
13:42 74.7 °F 54.9 °F 30.2 in NNE 3 mph 5 mph 50 % 0 in
13:47 75 °F 56.1 °F 30.2 in North 4 mph 5 mph 52 % 0 in
13:52 75.2 °F 55.8 °F 30.2 in Calm   5 mph 51 % 0 in
14:02 76.1 °F 55.6 °F 30.2 in NNW 2 mph 6 mph 49 % 0 in
14:07 75.7 °F 56.3 °F 30.2 in NE 2 mph 4 mph 51 % 0 in
14:12 76.1 °F 56.1 °F 30.2 in NNE 3 mph 4 mph 50 % 0 in
14:17 76.1 °F 55.6 °F 30.2 in NE 3 mph 7 mph 49 % 0 in
14:22 75.6 °F 55.6 °F 30.2 in NW 1 mph 7 mph 50 % 0 in
14:32 76.6 °F 56.7 °F 30.2 in Calm   7 mph 50 % 0 in
14:42 77.5 °F 56.3 °F 30.2 in SE 1 mph 3 mph 48 % 0 in
14:47 77.7 °F 56.5 °F 30.2 in SSW 2 mph 3 mph 48 % 0 in
14:57 78.3 °F 56.3 °F 30.2 in NNE 2 mph 5 mph 47 % 0 in
15:02 77.7 °F 55.9 °F 30.2 in Calm   5 mph 47 % 0 in
15:12 78.3 °F 57 °F 30.2 in ENE 2 mph 5 mph 48 % 0 in
15:17 78.3 °F 56.3 °F 30.2 in ENE 2 mph 5 mph 47 % 0 in
15:22 77.7 °F 56.5 °F 30.2 in ENE 6 mph 7 mph 48 % 0 in
15:32 77 °F 56.3 °F 30.2 in Calm   7 mph 49 % 0 in
15:37 77.2 °F 56.5 °F 30.2 in Calm   7 mph 49 % 0 in
15:42 78.1 °F 57.4 °F 30.2 in ENE 3 mph 6 mph 49 % 0 in
15:47 78.3 °F 57 °F 30.2 in Calm   5 mph 48 % 0 in
15:52 78.8 °F 57.4 °F 30.2 in North 2 mph 4 mph 48 % 0 in
16:02 78.6 °F 57.2 °F 30.2 in WSW 5 mph 5 mph 48 % 0 in
16:07 78.4 °F 58.3 °F 30.2 in Calm   5 mph 50 % 0 in
16:17 79 °F 57.6 °F 30.2 in NE 4 mph 5 mph 48 % 0 in
16:22 79.2 °F 57.7 °F 30.2 in NE 2 mph 6 mph 48 % 0 in
16:32 79.2 °F 57.7 °F 30.2 in SSW 1 mph 6 mph 48 % 0 in
16:42 79.9 °F 57.9 °F 30.2 in WSW 3 mph 5 mph 47 % 0 in
16:47 80.1 °F 58.1 °F 30.2 in Calm   6 mph 47 % 0 in
16:52 80.4 °F 58.3 °F 30.2 in Calm   6 mph 47 % 0 in
17:02 80.4 °F 58.3 °F 30.2 in WNW 3 mph 5 mph 47 % 0 in
17:12 79.5 °F 58.6 °F 30.2 in NNW 2 mph 5 mph 49 % 0 in
17:17 79.3 °F 57.9 °F 30.2 in North 3 mph 9 mph 48 % 0 in
17:22 79.3 °F 57.4 °F 30.2 in NNE 1 mph 9 mph 47 % 0 in
17:32 79.2 °F 57.7 °F 30.2 in South 1 mph 9 mph 48 % 0 in
17:37 80.1 °F 58.6 °F 30.2 in Calm   4 mph 48 % 0 in
17:42 79.5 °F 58.1 °F 30.2 in East 2 mph 4 mph 48 % 0 in
17:52 78.8 °F 58.1 °F 30.2 in Calm   5 mph 49 % 0 in
18:02 78.4 °F 57.7 °F 30.2 in East 2 mph 5 mph 49 % 0 in
18:07 78.6 °F 57.9 °F 30.2 in ENE 2 mph 5 mph 49 % 0 in
18:17 78.8 °F 58.1 °F 30.2 in WNW 4 mph 6 mph 49 % 0 in
18:22 79 °F 58.1 °F 30.2 in Calm   6 mph 49 % 0 in
18:32 81 °F 58.8 °F 30.2 in North 2 mph 4 mph 47 % 0 in
18:42 79.5 °F 58.1 °F 30.2 in NE 6 mph 6 mph 48 % 0 in
18:52 78.6 °F 59 °F 30.2 in NE 4 mph 7 mph 51 % 0 in
18:57 78.4 °F 58.8 °F 30.2 in NE 1 mph 7 mph 51 % 0 in
19:02 78.3 °F 58.6 °F 30.2 in ENE 5 mph 7 mph 51 % 0 in
19:12 77.5 °F 58.5 °F 30.2 in ENE 5 mph 9 mph 52 % 0 in
19:17 77.4 °F 58.8 °F 30.2 in NNE 4 mph 7 mph 53 % 0 in
19:22 77.5 °F 59 °F 30.2 in NE 4 mph 7 mph 53 % 0 in
19:32 77.7 °F 58.6 °F 30.2 in NE 2 mph 6 mph 52 % 0 in
19:42 77.5 °F 59 °F 30.2 in NE 4 mph 6 mph 53 % 0 in
19:52 77.2 °F 58.6 °F 30.2 in NE 2 mph 7 mph 53 % 0 in
19:57 77.2 °F 58.6 °F 30.2 in NE 6 mph 8 mph 53 % 0 in
20:02 76.8 °F 59.4 °F 30.2 in NNE 4 mph 8 mph 55 % 0 in
20:12 76.3 °F 59.4 °F 30.2 in NE 3 mph 9 mph 56 % 0 in
20:17 75.9 °F 59.5 °F 30.2 in NNE 4 mph 6 mph 57 % 0 in
20:22 75.7 °F 59.4 °F 30.2 in NE 4 mph 6 mph 57 % 0 in
20:32 75 °F 59.7 °F 30.2 in NNE 4 mph 7 mph 59 % 0 in
20:42 74.1 °F 59.7 °F 30.2 in NE 2 mph 5 mph 61 % 0 in
20:47 73.6 °F 60.3 °F 30.2 in North 3 mph 5 mph 63 % 0 in
20:52 73 °F 59.7 °F 30.2 in NNE 4 mph 5 mph 63 % 0 in
20:57 72.9 °F 59.9 °F 30.2 in NE 1 mph 5 mph 64 % 0 in
21:02 72.3 °F 59.9 °F 30.2 in Calm   5 mph 65 % 0 in
21:07 71.8 °F 60.3 °F 30.2 in NNE 2 mph 4 mph 67 % 0 in
21:12 71.2 °F 60.1 °F 30.2 in NNE 2 mph 4 mph 68 % 0 in
21:17 70.9 °F 60.3 °F 30.2 in NNE 2 mph 4 mph 69 % 0 in
21:22 70.5 °F 59.9 °F 30.2 in NNE 1 mph 4 mph 69 % 0 in
21:27 70.2 °F 59.9 °F 30.2 in NNE 2 mph 4 mph 70 % 0 in
21:32 69.8 °F 59.9 °F 30.2 in NNE 2 mph 4 mph 71 % 0 in
21:42 69.3 °F 59.9 °F 30.2 in NNE 2 mph 4 mph 72 % 0 in
21:52 68.5 °F 59.9 °F 30.2 in Calm   3 mph 74 % 0 in
22:02 67.8 °F 59.5 °F 30.2 in Calm   3 mph 75 % 0 in
22:12 67.6 °F 59.4 °F 30.2 in NNE 2 mph 3 mph 75 % 0 in
22:17 67.5 °F 59.5 °F 30.2 in NE 2 mph 3 mph 76 % 0 in
22:22 67.5 °F 59.5 °F 30.2 in Calm   3 mph 76 % 0 in
22:27 67.5 °F 59.5 °F 30.2 in Calm   4 mph 76 % 0 in
22:32 67.5 °F 59.5 °F 30.2 in NE 3 mph 4 mph 76 % 0 in
22:42 67.3 °F 59.5 °F 30.2 in Calm   3 mph 76 % 0 in
22:47 67.1 °F 59.4 °F 30.2 in Calm   3 mph 76 % 0 in
22:52 66.9 °F 59.2 °F 30.2 in North 1 mph 3 mph 76 % 0 in
23:02 66.7 °F 59.4 °F 30.2 in NE 1 mph 2 mph 77 % 0 in
23:12 66.9 °F 59.2 °F 30.2 in NNE 2 mph 4 mph 76 % 0 in
23:17 66.9 °F 59.2 °F 30.2 in NNE 1 mph 4 mph 76 % 0 in
23:22 66.7 °F 59 °F 30.2 in NNE 3 mph 4 mph 76 % 0 in
23:27 66.7 °F 59 °F 30.2 in Calm   5 mph 76 % 0 in
23:32 66.6 °F 58.8 °F 30.2 in Calm   5 mph 76 % 0 in
23:42 66.6 °F 59.2 °F 30.2 in NNE 1 mph 4 mph 77 % 0 in
23:47 66.2 °F 58.8 °F 30.2 in Calm   4 mph 77 % 0 in
23:57 66 °F 59 °F 30.2 in Calm   3 mph 78 % 0 in
Meteo18
Compliments of Weather Underground - 4 mb

Script developed by  Jim McMurry - jmcmurry@mwt.net Adapted for the template by  Wim van der Kuil - Leuven-Template.eu

You find our weather info also at:

European Weather Network

Weather Underground

Equipment we use:

Weather-station
Davis Vue

Weather-program
Meteohub

Weather-server
Raspberry PI 2 B+

Provider
1 and 1

Davis Vue

Meteohub

Raspberry PI 2 B+

1 and 1